Location: Unspecified
(41.5000°N, 0.0000°E)
Time: 16:48:35
(UTC+00:00)

Courier 1B Rocket - Pass Details

Date: 02 July 2019
Orbit: 920 x 1202 km, 28.2° (Epoch: 21 July)

Event Time Altitude Azimuth Distance (km) Brightness Sun altitude
Rises 04:52:29 0° 257° (WSW) 3,975 7.5 2.7°
Reaches altitude 10° 04:56:35 10° 237° (WSW) 2,958 6.9 3.4°
Maximum altitude 05:00:39 16° 203° (SSW) 2,485 6.7 4.1°
Drops below altitude 10° 05:04:34 10° 168° (SSE) 2,833 7.3 4.7°
Sets 05:08:22 0° 147° (SSE) 3,723 8.1 5.4°
